sat.trackr.live / text

‹ back to catalog

STARLINK-3882

NORAD 52475 · 2022-049AA

PAYLOAD ACTIVE UNKNOWN

§ Identity

Operator
Country
US
Launch date
2022-05-06
Launch site
AFETR
Launch vehicle
Mass (kg)
RCS (m²)

Purposes: comms

External: N2YO · Heavens-Above · Gunter

§ Orbital elements

Epoch: 2026-05-25T02:27:26.987616Z

Period
95.44 min
Inclination
53.2141°
Eccentricity
0.0001628
Mean motion
15.08835973 rev/d
Perigee alt
538.6 km
Apogee alt
540.9 km
Semi-major
6,917.9 km
B*
6.8085e-5
RAAN
76.3121°
Arg perigee
68.4314°
Mean anomaly
291.6851°
Rev number
22,378

§ Raw data

STARLINK-38821 52475U 22049AA  26145.10239569  .00000796  00000+0  68085-4 0  99952 52475  53.2141  76.3121 0001628  68.4314 291.6851 15.08835973223787

JSON: /api/v1/satellites/52475 · /tle

For live sub-satellite position, see the globe view (requires WebGL).

§ Visibility from observer

Set your observer location to see the next 7 days of passes ≥ 10°. The values pass through the URL so the page stays shareable.

No JS? Fill the form by hand. The geolocation button needs JavaScript.